Date,TemperatureHighF,TemperatureAvgF,TemperatureLowF,DewpointHighF,DewpointAvgF,DewpointLowF,HumidityHigh,HumidityAvg,HumidityLow,PressureMaxIn,PressureMinIn,WindSpeedMaxMPH,WindSpeedAvgMPH,GustSpeedMaxMPH,PrecipitationSumIn
2013-1-1,37.3,32.2,21.0,27.6,19.5,7.6,72,59,47,29.94,29.73,17,4,0,0.01
2013-1-2,30.6,21.3,13.7,16.4,10.1,2.4,73,62,50,30.12,29.91,16,4,0,0.00
2013-1-3,26.2,15.6,6.6,12.5,1.6,-4.3,76,55,27,30.16,30.01,12,2,0,0.00
2013-1-4,38.3,29.0,14.5,24.6,20.7,11.5,90,72,55,30.00,29.83,17,2,0,0.05
2013-1-5,41.9,33.9,24.0,25.7,22.8,20.0,86,65,42,30.27,29.86,13,3,0,0.04
2013-1-6,43.9,33.2,24.7,29.7,26.8,20.7,91,78,56,30.23,29.95,12,2,0,0.01
2013-1-7,41.5,32.8,19.1,30.8,24.4,16.7,92,73,46,30.40,29.98,10,2,0,0.00
2013-1-8,46.7,34.8,16.5,30.0,26.3,14.3,93,72,50,30.37,30.27,12,3,0,0.00
2013-1-9,45.0,36.4,24.8,36.7,29.8,23.2,95,78,53,30.40,30.01,13,3,0,0.00
2013-1-10,47.3,41.5,31.5,29.6,25.6,23.8,77,54,40,30.54,30.06,17,4,0,0.01
2013-1-11,39.4,33.9,26.3,36.5,28.8,23.4,96,82,65,30.54,30.22,4,1,0,0.10
2013-1-12,42.8,39.6,37.3,42.3,39.0,36.5,98,97,96,30.23,30.13,4,1,0,0.03
2013-1-13,52.7,46.6,40.8,51.2,45.7,40.3,99,97,92,30.16,29.99,10,2,0,0.01
2013-1-14,60.4,50.9,41.0,52.6,43.3,29.4,97,77,41,30.25,29.85,15,4,0,0.00
2013-1-15,41.1,37.7,32.6,29.7,26.9,25.4,78,65,54,30.33,30.21,7,1,0,0.00
2013-1-16,33.8,32.4,28.5,33.0,30.0,26.0,97,91,75,30.25,29.83,5,0,0,0.04
2013-1-17,41.9,35.0,29.7,33.8,28.2,14.3,97,78,54,30.10,29.84,10,2,0,1.62
2013-1-18,29.7,23.0,16.9,16.5,4.5,-2.3,62,45,29,30.45,30.06,16,2,0,0.01
2013-1-19,47.5,37.0,20.3,33.4,23.5,7.1,74,58,41,30.39,29.89,21,6,0,0.00
2013-1-20,52.7,41.3,29.0,33.6,26.1,9.8,74,56,28,29.93,29.55,26,6,0,0.00
2013-1-21,28.9,24.6,18.2,21.3,11.7,3.2,93,59,42,30.10,29.80,12,2,0,0.00
2013-1-22,24.6,19.6,11.6,19.1,8.0,-2.0,95,63,34,30.09,29.77,15,3,0,0.00
2013-1-23,15.0,11.3,4.8,2.8,-4.9,-9.6,67,48,32,30.16,30.08,20,3,0,0.00
2013-1-24,20.6,11.7,3.5,-4.6,-7.1,-9.4,58,43,28,30.25,30.09,15,4,0,0.00
2013-1-25,24.4,16.1,5.8,14.0,-4.4,-9.5,84,41,24,30.32,30.07,9,2,0,0.00
2013-1-26,25.6,17.4,6.2,14.2,4.7,-5.6,92,60,32,30.26,30.02,10,2,0,0.00
2013-1-27,31.8,21.4,11.1,5.6,3.4,0.2,66,47,27,30.48,30.25,12,3,0,0.00
2013-1-28,31.4,24.5,16.8,26.2,14.8,3.1,95,69,39,30.47,30.02,7,1,0,0.00
2013-1-29,33.5,30.0,24.7,32.5,28.4,23.5,96,94,92,30.20,30.02,4,1,0,0.09
2013-1-30,60.1,55.9,43.2,57.4,54.4,42.9,100,95,89,29.90,29.44,19,8,0,0.86
2013-1-31,61.0,47.9,31.4,59.3,37.4,16.8,96,69,38,29.59,28.96,28,8,0,0.75
2013-2-1,32.9,28.7,22.5,16.7,9.7,5.3,62,45,33,30.10,29.59,20,5,0,0.00
2013-2-2,30.4,24.7,16.4,14.2,8.4,3.9,62,50,40,30.26,30.06,14,3,0,0.00
2013-2-3,28.1,24.8,20.5,23.7,20.9,14.0,92,85,60,30.07,29.74,7,1,0,0.00
2013-2-4,29.8,24.0,14.6,22.5,12.4,7.4,91,62,39,29.95,29.73,15,3,0,0.00
2013-2-5,29.7,25.2,20.9,23.0,15.6,10.5,91,67,52,30.03,29.94,6,1,0,0.00
2013-2-6,39.0,31.3,25.1,27.5,21.6,9.2,94,70,41,30.21,29.92,11,3,0,0.02
2013-2-7,31.6,26.7,17.1,13.3,5.4,2.5,68,40,30,30.53,30.45,7,2,0,0.00
2013-2-8,31.4,24.6,16.7,26.5,20.4,10.3,95,85,57,30.50,29.62,24,4,0,0.00
2013-2-9,22.9,19.6,12.2,21.7,18.0,8.9,95,93,85,30.22,29.60,27,5,0,0.00
2013-2-10,34.1,21.8,8.2,33.1,20.1,5.9,98,93,80,30.41,30.22,7,2,0,0.03
2013-2-11,43.1,29.7,17.2,42.8,28.7,15.4,99,96,92,30.36,29.62,7,1,0,0.15
2013-2-12,44.5,39.5,34.6,41.5,31.4,25.8,99,74,54,29.89,29.62,14,4,0,0.01
2013-2-13,43.4,35.8,27.6,27.3,25.3,23.2,84,66,48,29.87,29.70,8,2,0,0.00
2013-2-14,46.1,36.8,29.7,26.1,23.6,21.2,78,60,38,29.99,29.72,7,1,0,0.00
2013-2-15,52.3,39.9,30.0,35.5,31.7,24.7,95,74,50,30.00,29.90,14,4,0,0.00
2013-2-16,38.7,34.8,30.3,33.1,28.6,18.9,95,79,56,29.96,29.73,10,2,0,0.03
2013-2-17,30.1,22.2,17.1,22.6,12.0,1.8,91,66,42,29.72,29.41,18,5,0,0.00
2013-2-18,32.9,23.2,12.3,5.8,2.1,-0.9,58,41,25,30.17,29.71,16,5,0,0.00
2013-2-19,48.4,36.2,22.4,42.8,24.9,4.4,97,65,44,30.19,29.59,14,3,0,0.26
2013-2-20,41.2,32.3,26.0,40.1,20.3,10.8,96,62,42,29.79,29.55,16,5,0,0.00
2013-2-21,34.0,28.2,24.6,17.8,14.8,11.9,70,57,43,30.21,29.78,12,4,0,0.00
2013-2-22,41.7,32.2,22.4,25.8,21.4,16.5,85,65,43,30.39,30.21,13,2,0,0.00
2013-2-23,38.2,33.8,29.0,32.8,31.3,24.1,97,91,76,30.34,29.92,4,1,0,0.00
2013-2-24,35.1,33.8,32.0,34.3,33.0,31.2,98,97,96,29.91,29.71,8,2,0,1.67
2013-2-25,40.0,34.8,29.6,34.6,32.5,28.9,98,91,76,30.25,29.90,4,0,0,0.41
2013-2-26,43.6,36.6,29.9,35.9,31.1,29.2,98,82,60,30.34,30.16,9,2,0,0.68
2013-2-27,42.0,38.7,34.8,41.0,37.6,31.1,98,96,86,30.16,29.58,17,5,0,1.47
2013-2-28,48.4,38.5,32.8,40.0,35.8,31.5,98,90,71,29.64,29.54,4,1,0,0.00
2013-3-1,42.7,38.4,31.9,36.0,31.3,28.2,97,77,63,29.69,29.54,10,2,0,0.01
2013-3-2,42.8,37.7,33.3,30.7,28.5,26.8,78,69,59,29.69,29.63,7,1,0,0.00
2013-3-3,42.3,35.8,32.4,32.7,29.1,25.8,93,77,64,29.65,29.57,8,2,0,0.00
2013-3-4,41.2,34.7,27.7,27.5,25.0,20.2,78,68,53,29.76,29.60,13,4,0,0.00
2013-3-5,45.6,36.9,31.2,31.5,27.7,23.9,91,70,53,30.07,29.76,10,2,0,0.00
2013-3-6,39.6,36.3,34.2,36.3,33.5,30.9,97,90,73,30.11,30.05,19,5,0,1.44
2013-3-7,34.5,32.5,30.7,32.4,30.9,29.3,97,94,89,30.07,30.00,18,6,0,0.06
2013-3-8,34.9,31.8,29.3,34.4,30.7,26.8,99,96,74,30.16,29.95,14,3,0,0.73
2013-3-9,51.5,36.5,27.8,38.1,31.1,24.6,98,83,35,30.36,30.16,13,2,0,0.26
2013-3-10,46.7,35.8,24.3,33.0,29.9,23.1,97,80,56,30.42,30.30,8,2,0,0.01
2013-3-11,54.7,42.7,35.6,41.3,36.6,32.3,95,80,52,30.34,30.15,10,4,0,0.00
2013-3-12,55.9,50.1,42.5,53.0,48.4,40.3,98,94,83,30.16,29.72,18,5,0,0.39
2013-3-13,52.8,44.0,35.6,51.2,31.2,20.3,97,63,32,29.79,29.71,13,3,0,0.00
2013-3-14,36.5,31.5,23.3,25.4,15.7,7.5,68,52,40,29.85,29.72,12,4,0,0.00
2013-3-15,41.5,30.8,20.7,28.8,15.5,6.8,78,54,27,29.89,29.65,17,5,0,0.00
2013-3-16,40.0,34.4,28.5,28.5,16.5,8.4,78,50,29,29.89,29.69,8,2,0,0.00
2013-3-17,38.7,31.3,23.4,18.9,11.9,2.8,79,47,23,30.32,29.88,14,3,0,0.00
2013-3-18,39.6,29.4,18.0,27.6,8.1,1.5,92,44,23,30.47,30.24,8,2,0,0.00
2013-3-19,35.4,32.5,29.0,34.9,31.6,27.4,98,97,91,30.23,29.63,16,4,0,0.34
2013-3-20,39.2,31.9,25.7,27.5,22.5,19.1,95,70,45,29.82,29.71,19,4,0,0.38
2013-3-21,38.8,30.2,22.2,29.2,23.5,17.9,95,78,45,29.83,29.62,8,1,0,0.74
2013-3-22,40.9,33.9,27.8,26.7,20.3,16.9,88,58,39,29.76,29.62,19,3,0,0.05
2013-3-23,43.5,36.3,29.5,24.9,21.2,18.4,76,55,37,29.81,29.66,15,5,0,0.00
2013-3-24,48.6,38.9,32.8,27.4,23.8,20.5,76,56,39,29.83,29.73,10,2,0,0.00
2013-3-25,43.0,36.8,30.3,33.3,29.9,25.6,87,76,66,29.77,29.52,21,3,0,0.00
2013-3-26,49.9,41.3,35.6,30.7,26.4,20.0,78,57,32,29.79,29.55,9,2,0,0.00
2013-3-27,53.1,42.9,30.8,31.6,25.2,21.2,75,51,34,29.88,29.75,9,2,0,0.00
2013-3-28,49.4,42.8,35.2,35.5,33.5,29.8,93,71,47,30.03,29.88,9,2,0,0.00
2013-3-29,57.9,46.4,33.8,35.6,32.3,27.6,90,61,33,30.06,29.97,11,2,0,0.00
2013-3-30,57.3,47.1,35.6,33.9,25.3,15.1,75,48,19,30.11,30.01,11,2,0,0.00
2013-3-31,59.7,45.1,29.2,41.7,29.1,21.4,93,60,23,30.12,29.74,19,4,0,0.05
2013-4-1,62.2,46.8,35.3,44.4,36.6,12.1,97,71,34,29.81,29.51,16,5,0,0.13
2013-4-2,39.2,34.4,26.5,20.6,14.7,9.5,63,44,30,29.95,29.80,23,6,0,0.00
2013-4-3,44.2,36.8,30.5,22.1,14.6,9.1,68,41,26,30.18,29.94,17,5,0,0.00
2013-4-4,55.3,42.3,30.7,27.9,17.7,9.6,60,40,18,30.31,30.05,14,4,0,0.00
2013-4-5,61.9,46.7,37.8,31.2,27.3,18.5,75,51,19,30.06,29.64,13,4,0,0.00
2013-4-6,46.9,38.4,30.2,26.8,12.3,2.0,61,37,16,30.34,29.89,19,3,0,0.00
2013-4-7,55.5,42.1,24.2,41.3,28.6,18.3,88,61,28,30.34,30.01,25,5,0,0.00
2013-4-8,67.2,53.8,42.7,43.3,40.3,33.0,96,65,28,30.08,29.96,8,2,0,0.00
2013-4-9,70.4,56.8,46.3,53.8,44.8,40.4,97,67,40,30.08,29.87,13,3,0,0.10
2013-4-10,67.1,53.4,46.2,50.5,47.2,43.4,96,81,54,30.02,29.85,6,2,0,0.25
2013-4-11,55.3,47.8,41.3,47.5,39.5,27.3,97,76,42,30.15,29.82,8,2,0,0.04
2013-4-12,41.5,38.6,37.1,38.2,36.3,33.0,97,92,73,30.16,29.80,18,4,0,3.04
2013-4-13,53.6,44.9,35.9,40.1,36.7,34.7,97,75,51,29.95,29.77,12,2,0,0.06
2013-4-14,51.5,45.5,38.8,41.8,33.2,26.5,95,64,39,30.23,29.92,11,2,0,0.01
2013-4-15,60.4,46.2,31.2,38.7,32.8,28.2,92,62,36,30.39,30.23,10,2,0,0.00
2013-4-16,65.7,52.1,37.1,51.0,42.5,35.3,95,72,45,30.41,30.07,16,4,0,0.00
2013-4-17,68.1,58.7,47.6,53.6,38.1,28.1,90,51,24,30.34,30.07,12,3,0,0.00
2013-4-18,63.8,50.9,34.8,45.6,33.9,27.1,87,55,31,30.42,30.14,14,4,0,0.00
2013-4-19,73.5,62.4,52.3,63.1,57.6,46.0,98,85,63,30.14,29.65,20,5,0,0.00
2013-4-20,66.0,53.8,43.2,63.0,40.9,22.8,96,66,34,30.23,29.60,16,4,0,0.56
2013-4-21,54.2,43.7,34.1,29.8,22.6,17.3,75,45,24,30.68,30.24,10,3,0,0.00
2013-4-22,50.7,41.7,31.6,35.0,30.5,23.1,95,67,35,30.76,30.60,18,3,0,0.00
2013-4-23,41.7,40.2,37.8,40.9,37.6,32.0,97,91,75,30.60,30.14,13,4,0,0.04
2013-4-24,75.8,56.1,41.1,51.8,44.3,36.5,97,71,26,30.13,29.79,22,5,0,0.01
2013-4-25,64.9,55.7,43.8,53.0,36.1,23.9,93,53,22,30.27,29.83,15,4,0,0.03
2013-4-26,61.3,49.2,35.7,40.6,34.6,28.1,84,59,39,30.43,30.27,12,2,0,0.00
2013-4-27,66.6,51.9,34.0,41.7,36.6,32.3,97,61,29,30.43,30.28,11,2,0,0.00
2013-4-28,71.8,55.7,38.2,42.7,36.0,27.6,96,53,25,30.34,30.20,13,3,0,0.00
2013-4-29,69.2,57.9,46.7,48.0,37.9,25.2,88,52,26,30.27,30.19,16,3,0,0.00
2013-4-30,71.1,58.2,44.4,37.4,27.5,16.7,70,35,16,30.36,30.25,10,2,0,0.00
2013-5-1,71.0,56.7,37.4,41.6,34.1,28.9,91,48,24,30.47,30.36,12,2,0,0.00
2013-5-2,79.2,57.9,43.6,47.3,41.7,36.7,94,60,24,30.49,30.33,18,2,0,0.00
2013-5-3,62.1,50.9,38.3,45.1,41.2,36.0,94,71,52,30.52,30.39,12,3,0,0.00
2013-5-4,62.9,50.5,38.6,45.7,39.7,31.5,97,70,38,30.38,30.30,12,3,0,0.00
2013-5-5,63.0,48.9,30.9,41.9,38.9,30.3,98,72,44,30.34,30.25,10,2,0,0.00
2013-5-6,75.2,55.4,37.3,51.8,44.2,35.9,98,71,34,30.29,30.14,8,1,0,0.00
2013-5-7,79.2,63.8,46.5,58.6,52.4,45.1,97,70,41,30.18,30.08,10,3,0,0.00
2013-5-8,72.5,63.4,54.1,64.3,58.8,52.4,98,86,60,30.19,30.04,13,2,0,0.13
2013-5-9,67.5,61.1,57.8,62.0,59.3,57.2,98,94,75,30.04,29.89,4,1,0,0.71
2013-5-10,80.3,67.6,53.1,60.5,55.4,50.0,99,70,36,29.96,29.88,8,2,0,0.01
2013-5-11,69.9,63.9,58.6,62.3,59.3,54.9,96,85,71,29.91,29.69,16,4,0,0.08
2013-5-12,71.1,61.2,50.6,60.7,51.3,31.4,97,73,41,29.82,29.57,12,3,0,0.15
2013-5-13,59.2,49.6,44.7,34.0,30.7,26.9,63,49,31,30.04,29.82,15,3,0,0.00
2013-5-14,59.1,50.3,40.1,35.8,31.8,26.9,77,51,30,30.06,29.98,10,2,0,0.00
2013-5-15,64.9,51.2,40.1,52.9,43.5,34.9,93,77,37,30.06,29.68,18,4,0,0.04
2013-5-16,81.1,69.4,54.1,52.5,41.1,32.3,94,41,20,29.79,29.64,15,4,0,0.00
2013-5-17,69.3,59.9,49.5,44.3,41.5,33.8,81,52,30,30.22,29.79,11,2,0,0.00
2013-5-18,73.8,60.8,44.9,48.9,43.4,35.2,96,59,27,30.31,30.21,13,2,0,0.00
2013-5-19,71.7,59.3,49.3,55.2,50.9,46.8,97,76,46,30.34,30.21,12,3,0,0.07
2013-5-20,81.8,68.9,56.0,65.7,61.1,55.2,98,79,54,30.21,29.91,8,2,0,0.01
2013-5-21,87.8,65.6,51.1,69.3,59.8,50.0,98,83,51,30.01,29.84,13,2,0,0.09
2013-5-22,73.5,58.7,50.4,65.8,55.7,49.3,98,90,74,30.07,29.88,8,2,0,0.11
2013-5-23,74.7,64.1,54.9,69.4,61.8,54.1,99,93,80,29.93,29.80,16,3,0,0.21
2013-5-24,72.7,62.9,48.4,66.6,60.4,47.5,98,92,77,29.83,29.65,13,3,0,0.32
2013-5-25,50.9,47.0,41.5,49.2,45.9,39.9,98,96,93,29.82,29.73,13,3,0,0.51
2013-5-26,59.1,49.1,40.0,42.0,39.6,37.5,93,72,45,30.12,29.74,16,4,0,0.01
2013-5-27,73.1,58.4,42.0,46.6,39.9,31.3,94,56,23,30.17,30.08,13,3,0,0.00
2013-5-28,77.6,61.4,42.7,54.1,45.6,38.1,97,61,26,30.24,30.15,8,2,0,0.00
2013-5-29,71.7,63.7,58.2,66.0,61.1,54.2,98,91,80,30.19,29.99,9,2,0,0.82
2013-5-30,88.5,75.7,62.7,70.3,66.4,62.1,99,76,49,30.09,30.00,11,2,0,0.00
2013-5-31,94.6,80.4,64.6,71.8,66.0,61.6,98,66,34,30.09,29.93,11,3,0,0.00
2013-6-1,91.7,80.2,68.8,69.5,66.2,62.9,83,64,41,29.97,29.85,13,4,0,0.00
2013-6-2,88.4,77.3,68.6,69.8,66.8,63.3,91,72,45,29.87,29.71,26,6,0,0.00
2013-6-3,78.3,69.7,62.2,67.5,62.8,44.2,97,80,50,29.85,29.75,10,2,0,0.33
2013-6-4,72.1,62.5,50.2,50.3,44.8,39.9,80,54,37,30.10,29.83,11,2,0,0.00
2013-6-5,75.2,63.1,48.6,53.2,47.7,42.5,93,61,33,30.19,30.09,12,2,0,0.00
2013-6-6,74.4,64.1,53.4,55.1,50.6,45.8,88,63,38,30.19,30.10,14,2,0,0.01
2013-6-7,58.9,56.0,53.3,57.8,54.9,52.5,99,96,88,30.11,29.82,10,2,0,2.10
2013-6-8,78.1,63.3,52.9,64.9,58.0,52.6,99,84,60,30.01,29.63,12,3,0,0.75
2013-6-9,80.0,68.5,56.3,58.6,56.5,53.5,97,69,42,30.16,30.01,10,2,0,0.00
2013-6-10,70.9,62.7,55.9,62.7,58.5,54.8,97,87,63,30.20,30.01,5,1,0,0.65
2013-6-11,62.9,58.7,56.5,59.3,57.3,55.9,98,95,86,30.01,29.57,9,2,0,1.06
2013-6-12,70.3,63.2,57.3,58.2,55.4,52.9,99,78,56,29.82,29.57,12,2,0,0.01
2013-6-13,64.9,57.0,51.7,60.2,54.4,50.6,98,91,77,29.82,29.68,9,1,0,0.83
2013-6-14,75.5,60.7,52.0,59.0,54.2,51.2,99,82,45,29.77,29.64,12,2,0,0.82
2013-6-15,79.9,68.8,59.0,55.1,49.0,41.7,82,53,27,29.94,29.78,12,2,0,0.00
2013-6-16,74.9,66.8,55.6,63.8,55.4,48.0,86,68,44,29.94,29.71,12,3,0,0.00
2013-6-17,85.1,70.3,60.0,64.3,60.3,56.0,97,74,38,29.90,29.77,11,3,0,0.27
2013-6-18,76.3,63.1,58.6,66.2,60.9,58.0,99,93,69,29.95,29.88,11,1,0,0.44
2013-6-19,76.5,64.6,56.2,58.0,53.7,47.8,99,72,39,30.15,29.91,9,1,0,0.09
2013-6-20,79.5,66.8,50.1,56.9,51.4,46.1,98,63,33,30.26,30.15,10,2,0,0.00
2013-6-21,85.5,78.5,69.4,66.7,62.4,57.9,77,60,41,30.22,30.18,6,2,0,0.00
2013-6-22,84.3,73.2,63.3,66.0,60.2,57.5,82,65,42,30.22,30.10,13,4,0,0.00
2013-6-23,89.5,76.9,64.8,73.0,65.9,57.7,82,70,55,30.16,29.99,13,4,0,0.00
2013-6-24,92.8,80.2,70.0,74.0,70.4,65.5,96,74,48,30.02,29.87,11,3,0,0.05
2013-6-25,91.1,78.9,68.3,73.1,68.6,65.7,96,73,44,29.93,29.72,12,3,0,0.00
2013-6-26,86.1,77.4,70.6,71.0,69.0,67.1,93,76,58,29.84,29.72,9,2,0,0.00
2013-6-27,74.4,67.5,63.8,69.0,65.6,62.9,99,94,82,29.86,29.75,5,1,0,0.18
2013-6-28,82.3,71.1,61.3,75.4,67.6,60.7,100,90,68,29.76,29.48,18,4,0,0.26
2013-6-29,83.3,75.2,70.4,71.6,69.2,67.1,98,83,59,29.72,29.50,13,5,0,0.00
2013-6-30,85.8,76.3,69.7,73.7,70.4,68.0,96,83,60,29.93,29.72,15,4,0,0.02
2013-7-1,82.6,75.2,71.3,76.5,72.6,70.4,98,92,78,30.07,29.93,12,3,0,0.14
2013-7-2,83.8,75.8,65.2,74.5,71.2,62.7,94,86,72,30.19,30.06,13,4,0,0.00
2013-7-3,88.8,75.7,62.9,75.0,69.4,61.4,97,82,59,30.20,30.13,13,3,0,0.00
2013-7-4,91.8,82.5,73.0,75.3,73.5,71.7,96,76,54,30.20,30.09,12,4,0,0.00
2013-7-5,93.4,84.0,75.0,76.0,73.6,71.2,91,73,49,30.15,30.02,10,3,0,0.00
2013-7-6,91.6,83.0,75.1,75.4,72.2,67.0,91,71,49,30.07,29.97,11,2,0,0.00
2013-7-7,92.7,80.4,71.8,78.3,71.1,65.8,90,74,54,30.02,29.90,10,1,0,0.00
2013-7-8,89.9,78.3,69.3,75.8,71.8,66.6,97,82,50,30.05,29.90,9,2,0,0.00
2013-7-9,74.9,69.5,65.4,69.8,66.7,64.2,98,91,82,30.10,30.04,6,1,0,0.00
2013-7-10,85.4,74.2,66.9,75.6,70.8,65.1,98,90,70,30.07,29.79,16,2,0,0.13
2013-7-11,83.4,76.3,72.2,75.0,72.7,69.4,98,89,69,29.91,29.77,6,2,0,0.06
2013-7-13,77.6,73.4,66.6,71.7,69.8,65.1,97,89,80,30.30,30.27,5,1,0,0.01
2013-7-14,91.3,78.8,70.3,77.1,72.4,69.4,99,83,50,30.30,30.20,7,1,0,0.25
2013-7-15,92.5,81.2,71.6,78.3,73.5,69.2,99,80,48,30.20,30.09,7,1,0,0.01
2013-7-16,93.1,81.9,69.0,72.6,69.3,66.2,94,68,42,30.16,30.09,8,1,0,0.00
2013-7-17,95.4,82.9,71.4,75.9,71.6,66.6,97,72,40,30.17,29.99,8,2,0,0.00
2013-7-18,95.5,84.5,75.7,76.8,73.8,69.6,89,72,45,30.00,29.91,7,2,0,0.00
2013-7-19,95.8,85.1,74.0,78.8,74.4,70.5,95,73,46,29.94,29.71,16,4,0,0.00
2013-7-20,92.2,83.8,76.5,77.3,73.7,62.5,92,73,51,29.80,29.65,11,3,0,0.01
2013-7-21,86.0,76.8,69.9,68.8,65.4,61.0,91,69,52,29.98,29.80,7,2,0,0.00
2013-7-22,84.2,72.6,65.3,70.9,67.3,64.1,99,85,62,30.01,29.88,9,2,0,0.00
2013-7-23,80.6,72.6,69.0,78.3,71.3,67.4,99,96,84,29.88,29.53,11,1,0,1.87
2013-7-24,84.7,76.4,66.1,74.3,67.6,55.4,100,76,51,29.95,29.57,11,2,0,0.00
2013-7-25,65.7,59.9,58.4,58.6,54.9,49.1,98,84,68,30.10,29.95,8,2,0,0.22
2013-7-26,72.5,64.7,59.3,67.4,62.4,58.4,98,93,80,30.06,29.95,8,2,0,0.32
2013-7-27,84.5,71.4,60.2,68.1,63.6,59.3,98,79,49,30.06,29.98,8,2,0,0.01
2013-7-28,86.9,72.7,63.8,71.5,66.9,62.0,97,84,52,30.02,29.94,8,1,0,0.00
2013-7-29,84.2,73.6,66.8,71.7,68.5,65.0,98,85,61,30.04,29.95,13,2,0,0.30
2013-7-30,82.4,71.8,60.0,64.7,59.3,53.8,96,68,38,30.10,30.03,8,2,0,0.01
2013-7-31,82.7,72.0,60.3,64.8,60.2,54.8,94,69,41,30.14,30.03,7,1,0,0.00
2013-8-1,79.6,69.6,61.2,67.6,63.9,60.1,98,83,61,30.05,29.87,9,2,0,0.01
2013-8-2,82.9,72.0,64.5,68.6,63.8,58.1,98,78,45,29.89,29.80,13,2,0,0.70
2013-8-3,79.1,70.6,63.9,65.0,63.3,60.4,97,79,54,29.86,29.78,12,3,0,0.00
2013-8-4,80.1,68.9,59.3,62.6,58.2,55.2,93,71,43,29.90,29.77,8,2,0,0.02
2013-8-5,76.6,65.6,55.6,55.8,49.0,40.4,91,59,28,30.05,29.89,10,2,0,0.00
2013-8-6,80.6,66.4,51.2,57.5,53.2,49.6,97,67,38,30.15,30.05,7,1,0,0.00
2013-8-7,79.3,68.0,56.0,62.1,56.5,49.3,98,70,37,30.18,30.11,12,2,0,0.00
2013-8-8,79.6,71.7,64.9,71.5,67.2,58.9,95,86,75,30.12,30.00,11,4,0,0.04
2013-8-9,75.4,72.9,70.9,74.8,71.6,69.3,99,96,90,30.02,29.75,12,4,0,1.36
2013-8-10,83.5,74.1,65.6,71.7,61.9,53.8,98,69,39,30.01,29.79,12,3,0,0.00
2013-8-11,79.5,67.9,54.0,61.4,55.6,50.0,97,68,41,30.08,30.00,9,1,0,0.00
2013-8-12,83.2,71.2,61.0,64.1,60.1,56.0,95,71,41,30.03,29.92,7,2,0,0.00
2013-8-13,74.1,68.6,65.1,69.1,65.1,61.9,95,89,73,29.92,29.68,6,1,0,0.02
2013-8-14,73.9,66.8,60.3,64.2,55.4,50.7,97,68,49,29.97,29.67,12,3,0,0.00
2013-8-15,77.3,65.7,53.7,56.4,53.1,49.6,93,67,41,30.11,29.97,10,2,0,0.00
2013-8-16,80.9,67.0,55.4,61.4,55.9,51.9,93,71,37,30.20,30.11,11,2,0,0.00
2013-8-17,82.1,69.3,55.7,63.9,59.2,54.5,97,73,46,30.28,30.20,5,1,0,0.00
2013-8-18,80.3,69.2,60.0,66.6,61.8,58.0,95,79,49,30.27,30.08,5,1,0,0.00
2013-8-19,82.2,71.3,60.2,63.9,61.3,57.1,96,73,49,30.08,29.95,9,2,0,0.00
2013-8-20,86.0,75.1,63.4,66.3,62.4,57.7,91,67,39,30.09,29.98,7,2,0,0.00
2013-8-21,88.7,74.8,62.2,68.1,64.1,60.4,96,72,41,30.14,30.02,9,1,0,0.00
2013-8-22,85.1,74.9,66.3,72.6,68.3,63.8,92,81,58,30.03,29.82,11,4,0,0.00
2013-8-23,80.1,72.6,63.6,69.9,59.7,52.1,93,66,40,30.13,29.82,10,2,0,0.00
2013-8-24,78.8,65.6,52.4,55.4,50.8,44.0,93,63,32,30.34,30.13,10,2,0,0.00
2013-8-25,82.6,68.4,53.1,59.8,54.2,48.8,97,65,32,30.37,30.19,9,2,0,0.00
2013-8-26,79.0,71.7,64.8,68.2,62.8,57.6,86,74,59,30.19,29.87,14,3,0,0.02
2013-8-27,84.6,73.7,66.7,71.6,68.5,64.8,98,85,56,29.89,29.82,7,1,0,0.13
2013-8-28,87.0,72.9,62.5,68.9,65.5,61.6,98,80,52,29.97,29.84,7,1,0,0.01
2013-8-29,67.0,64.7,61.8,65.0,62.3,58.3,96,92,88,30.07,29.94,9,2,0,0.00
2013-8-30,83.2,70.4,59.6,68.7,64.0,57.7,96,82,57,30.04,29.83,9,2,0,0.00
2013-8-31,79.6,74.4,68.7,73.5,70.9,66.9,97,89,79,29.83,29.78,13,3,0,0.00
2013-9-1,77.4,72.5,68.9,75.6,71.3,67.7,99,96,89,29.88,29.79,9,1,0,0.52
2013-9-2,80.1,74.4,71.7,75.5,72.4,71.1,99,93,85,29.86,29.70,8,2,0,0.03
2013-9-3,80.0,72.7,64.8,71.9,68.2,58.1,98,86,69,29.81,29.69,11,2,0,0.00
2013-9-4,80.6,69.7,60.9,60.8,57.6,52.6,89,68,39,29.92,29.81,12,3,0,0.00
2013-9-5,71.9,63.7,51.9,62.2,54.0,44.6,91,73,38,30.15,29.86,11,1,0,0.02
2013-9-6,70.4,57.2,43.0,48.7,43.7,38.6,94,65,34,30.25,30.10,9,2,0,0.00
2013-9-7,78.7,64.9,52.2,57.9,50.9,45.6,84,63,33,30.10,29.86,10,3,0,0.00
2013-9-8,75.3,65.2,53.3,62.0,53.0,41.0,90,66,37,30.10,29.75,16,3,0,0.00
2013-9-9,69.0,57.4,42.8,51.7,45.3,39.5,94,67,39,30.24,30.10,12,2,0,0.00
2013-9-10,75.3,66.9,57.1,70.3,63.3,51.7,97,88,81,30.16,30.03,14,4,0,0.08
2013-9-11,94.2,80.7,69.9,77.1,72.4,66.9,98,79,48,30.07,29.93,12,4,0,0.00
2013-9-12,86.3,76.7,67.7,74.2,70.4,66.6,97,82,63,29.96,29.67,15,4,0,1.22
2013-9-13,79.4,68.9,60.4,69.0,64.4,54.3,99,87,62,29.76,29.56,12,1,0,0.08
2013-9-14,68.9,61.1,54.4,54.5,52.9,50.8,89,75,58,30.06,29.76,10,2,0,0.00
2013-9-15,71.2,59.5,48.2,53.8,50.2,45.1,97,74,41,30.17,30.05,10,1,0,0.00
2013-9-16,68.1,58.4,48.0,56.2,51.2,38.7,92,78,60,30.25,30.02,10,2,0,0.01
2013-9-17,63.5,51.2,40.5,47.2,40.5,36.5,95,69,43,30.43,30.26,9,2,0,0.00
2013-9-18,73.6,56.7,42.4,51.0,45.9,39.2,98,73,33,30.34,30.15,7,1,0,0.00
2013-9-19,80.4,63.7,48.4,58.3,52.5,46.9,96,71,37,30.15,30.04,7,1,0,0.00
2013-9-20,82.0,65.0,51.1,59.5,54.8,50.0,97,74,37,30.09,29.99,6,1,0,0.00
2013-9-21,74.3,64.7,54.3,66.1,60.2,52.9,99,86,61,30.02,29.72,14,4,0,0.02
2013-9-22,70.7,64.4,52.6,67.7,56.9,46.3,98,78,50,29.83,29.59,16,3,0,0.33
2013-9-23,65.0,54.0,46.6,46.0,42.9,39.9,82,67,48,30.02,29.83,9,2,0,0.00
2013-9-24,68.5,55.0,42.7,47.1,43.0,40.0,90,66,39,30.00,29.82,8,2,0,0.00
2013-9-25,69.7,56.1,44.7,53.9,48.0,43.4,96,76,53,29.97,29.87,10,1,0,0.00
2013-9-26,66.8,59.6,53.5,53.1,49.8,47.3,89,71,53,30.13,30.02,8,1,0,0.00
2013-9-27,65.0,58.1,50.3,56.1,52.6,49.2,96,83,69,30.27,30.13,8,1,0,0.00
2013-9-28,73.5,58.3,47.5,57.0,51.6,46.7,99,81,52,30.34,30.26,8,1,0,0.01
2013-9-29,67.1,53.8,45.1,56.1,47.3,43.4,99,81,44,30.27,30.13,5,0,0,0.00
2013-9-30,69.5,55.8,47.1,54.6,50.1,46.0,99,84,51,30.14,29.97,7,1,0,0.01
2013-10-1,78.1,61.1,45.8,59.9,52.3,44.8,99,77,40,29.97,29.85,7,1,0,0.01
2013-10-2,80.3,66.7,55.9,61.7,58.1,53.7,94,76,51,29.96,29.84,11,3,0,0.00
2013-10-3,77.1,64.9,52.5,57.1,52.1,45.8,95,67,35,30.09,29.96,8,2,0,0.00
2013-10-4,65.4,58.5,51.9,58.8,54.9,49.7,97,88,78,30.09,30.04,5,0,0,0.08
2013-10-5,69.9,62.6,57.6,60.6,58.3,56.5,98,87,72,30.13,30.06,6,1,0,0.00
2013-10-6,61.3,56.8,54.2,58.7,55.9,53.4,99,97,90,30.23,30.11,7,1,0,0.42
2013-10-7,76.8,64.4,56.2,71.4,61.8,53.7,100,92,75,30.14,29.81,22,4,0,0.07
2013-10-8,66.5,57.6,44.2,54.0,46.8,41.5,90,69,43,30.38,29.91,10,2,0,0.00
2013-10-9,63.2,50.0,40.3,47.8,43.8,39.3,97,81,54,30.49,30.38,9,1,0,0.00
2013-10-10,61.8,51.2,41.4,54.0,48.0,40.3,99,89,75,30.38,30.19,6,1,0,0.01
2013-10-11,71.2,56.9,47.2,57.1,49.5,43.7,98,79,40,30.19,30.09,9,1,0,0.00
2013-10-12,58.9,52.8,46.1,57.2,50.9,45.2,99,93,86,30.40,30.15,13,1,0,0.00
2013-10-13,59.3,51.6,40.7,51.1,47.4,39.4,98,86,68,30.45,30.38,11,1,0,0.00
2013-10-14,65.9,50.7,37.2,50.5,43.2,36.4,99,79,39,30.41,30.26,6,1,0,0.01
2013-10-15,67.9,56.6,47.7,55.3,50.7,46.3,97,82,62,30.27,30.18,5,1,0,0.00
2013-10-16,60.6,54.5,48.3,55.1,51.7,46.9,99,91,76,30.18,29.92,4,0,0,0.00
2013-10-17,74.0,61.2,50.9,61.0,56.4,50.1,99,86,57,29.93,29.73,9,2,0,0.02
2013-10-18,67.4,60.6,46.0,61.6,51.3,43.2,97,74,47,29.92,29.61,19,3,0,0.02
2013-10-19,66.4,54.4,42.6,48.5,43.8,40.7,94,71,40,29.98,29.75,9,2,0,0.00
2013-10-20,62.1,53.9,43.5,51.2,41.0,32.6,97,65,33,30.03,29.69,16,2,0,0.04
2013-10-21,67.6,53.7,40.8,45.2,41.0,37.3,90,65,37,30.12,30.00,11,2,0,0.00
2013-10-22,65.3,53.7,42.0,53.4,46.4,37.5,98,78,54,30.00,29.71,13,2,0,0.00
2013-10-23,51.9,42.2,38.2,37.5,35.7,33.3,92,78,49,29.81,29.61,4,0,0,0.00
2013-10-24,53.2,48.0,40.9,35.3,30.4,25.6,75,53,34,29.82,29.78,10,5,0,0.00
2013-10-25,50.5,44.0,33.3,35.3,30.1,27.7,91,60,42,30.11,29.95,6,2,0,0.00
2013-10-26,54.7,46.2,33.0,35.7,30.7,26.4,91,59,34,30.16,29.93,14,5,0,0.00
2013-10-27,53.5,50.4,45.8,38.3,36.9,35.3,75,61,50,29.89,29.82,2,2,0,0.01
2013-10-28,55.2,41.5,35.7,34.8,32.9,28.8,89,74,46,30.34,30.12,7,2,0,0.00
2013-10-29,50.6,41.8,26.0,28.1,22.6,19.3,84,50,29,30.46,30.38,4,1,0,0.00
2013-10-30,54.4,46.5,38.6,41.2,38.0,32.4,93,73,61,30.33,30.21,7,2,0,0.01
2013-10-31,62.5,53.6,33.7,59.2,51.7,33.2,99,93,84,30.25,29.85,11,3,0,0.15
2013-11-1,69.4,65.9,59.6,62.9,58.9,54.4,89,78,67,29.63,29.47,21,8,0,0.09
2013-11-2,67.1,55.6,45.8,53.4,46.0,41.2,97,74,39,29.73,29.60,5,1,0,0.02
2013-11-3,45.5,40.7,35.8,39.1,24.0,17.7,81,53,33,30.37,29.86,6,2,0,0.01
2013-11-4,43.2,36.2,29.0,21.8,17.9,15.4,74,48,32,30.71,30.51,6,1,0,0.00
2013-11-5,52.2,37.6,25.6,35.0,28.4,23.6,95,72,43,30.73,30.53,5,1,0,0.00
2013-11-6,56.4,49.9,40.3,50.1,42.9,36.3,89,78,65,30.48,30.10,7,2,0,0.00
2013-11-7,63.7,55.5,44.0,57.8,51.6,37.3,92,87,77,29.83,29.71,14,4,0,0.14
2013-11-8,47.3,38.8,31.4,34.9,29.3,26.0,83,69,55,29.93,29.83,12,2,0,0.01
2013-11-10,47.9,45.4,42.9,42.2,36.0,33.5,83,70,63,29.92,29.80,8,3,0,0.04
2013-11-11,51.3,45.5,39.7,33.2,29.7,25.8,66,54,37,30.10,29.89,11,4,0,0.00
2013-11-12,48.5,36.6,23.6,39.8,26.4,15.6,90,67,54,30.21,29.90,10,2,0,0.10
2013-11-13,35.6,28.9,24.3,17.7,16.3,12.0,73,60,38,30.31,30.20,6,2,0,0.00
2013-11-14,52.1,41.4,32.6,25.4,22.4,19.8,63,48,34,30.13,30.07,9,2,0,0.00
2013-11-15,60.2,50.9,37.1,33.6,25.4,16.5,64,39,18,30.20,30.12,10,3,0,0.00
2013-11-16,61.5,45.9,37.4,32.4,29.6,24.4,82,55,24,30.32,30.20,4,1,0,0.00
2013-11-17,43.5,37.2,31.9,37.7,33.8,30.1,95,87,80,30.32,30.30,0,0,0,0.00
2013-11-18,65.2,61.3,46.6,61.8,47.5,36.8,99,63,41,29.82,29.54,13,5,0,0.29
2013-11-19,47.1,40.8,32.1,31.8,22.3,19.0,58,48,40,30.29,29.69,12,4,0,0.00
2013-11-20,42.5,32.8,24.5,18.0,16.0,13.5,76,52,31,30.64,30.31,6,1,0,0.00
2013-11-21,48.5,34.9,22.2,33.3,22.8,17.2,90,65,37,30.65,30.41,4,1,0,0.00
2013-11-22,46.3,44.5,42.0,45.8,42.7,35.3,98,93,77,30.36,29.84,2,0,0,0.12
2013-11-23,48.2,42.0,29.9,46.8,26.9,18.3,98,57,39,29.91,29.80,11,4,0,0.00
2013-11-24,28.4,24.6,20.6,18.8,6.9,-0.5,74,48,28,30.20,29.82,16,6,0,0.00
2013-11-25,34.2,26.9,17.4,20.0,3.4,-4.5,59,38,22,30.39,30.22,6,2,0,0.00
2013-11-26,40.6,36.0,33.0,34.6,23.6,15.5,96,62,47,30.32,30.07,6,2,0,0.11
2013-11-27,61.8,52.6,35.5,60.7,51.2,33.6,99,95,84,29.98,29.35,14,6,0,2.11
2013-11-28,32.5,28.0,25.1,17.3,12.9,10.7,61,53,43,30.44,30.05,10,3,0,0.01
2013-11-29,34.2,28.0,22.0,16.9,13.2,8.7,68,54,38,30.76,30.45,5,1,0,0.00
2013-11-30,33.6,28.7,16.0,20.2,17.0,9.5,75,62,52,30.81,30.56,4,1,0,0.00
2013-12-1,35.5,32.9,30.7,35.0,30.3,22.8,98,90,72,30.44,30.08,0,0,0,0.08
2013-12-2,39.4,37.1,36.2,38.8,36.6,35.7,99,98,97,30.03,29.94,1,0,0,0.00
2013-12-3,50.0,41.2,34.8,38.1,35.8,32.7,98,83,60,29.97,29.86,7,1,0,0.00
2013-12-4,45.4,37.0,31.7,32.1,29.9,28.8,94,77,53,30.14,30.00,5,1,0,0.01
2013-12-5,46.8,39.4,33.6,46.5,38.0,31.0,99,95,87,30.21,29.96,1,0,0,0.02
2013-12-6,55.7,47.5,34.8,55.1,44.8,33.8,99,90,72,30.14,29.87,5,1,0,0.24
2013-12-7,40.2,36.6,28.2,33.4,28.9,24.8,97,75,60,30.41,30.09,8,3,0,0.22
2013-12-8,31.1,27.9,23.4,21.2,18.8,16.4,82,69,55,30.61,30.47,3,1,0,0.00
2013-12-9,34.7,31.5,26.5,34.2,30.3,21.7,98,95,79,30.47,29.91,2,1,0,0.01
2013-12-10,34.1,30.6,25.4,32.8,27.8,19.0,98,90,74,30.01,29.80,11,2,0,0.00
2013-12-11,31.3,26.1,23.1,20.9,19.5,17.9,85,76,60,30.23,30.06,9,4,0,0.00
2013-12-12,26.2,22.4,13.9,19.8,8.3,4.4,84,56,41,30.28,30.09,8,2,0,0.00
2013-12-13,29.5,24.1,16.4,17.7,14.0,9.4,77,65,54,30.38,30.05,10,4,0,0.00
2013-12-14,16.6,13.5,11.2,13.9,2.7,-2.2,91,62,46,30.61,30.35,7,2,0,0.00
2013-12-15,31.9,24.9,22.6,31.4,23.0,21.3,98,92,87,29.74,29.47,7,2,0,0.00
2013-12-16,28.7,24.7,14.3,22.8,14.8,9.1,92,68,43,30.21,29.76,11,3,0,0.00
2013-12-17,17.6,8.9,4.0,15.7,4.8,1.0,92,83,69,30.30,29.98,3,1,0,0.00
2013-12-18,34.7,30.4,20.7,23.2,22.1,18.8,94,72,60,30.06,29.92,10,3,0,0.07
2013-12-19,41.6,33.3,24.1,27.6,24.6,20.3,85,71,56,30.11,29.99,4,2,0,0.16
2013-12-20,52.6,46.1,31.4,36.7,34.7,28.0,87,65,52,30.11,29.93,6,4,0,0.20
2013-12-21,55.7,48.7,42.7,47.0,42.6,35.5,88,80,69,29.96,29.91,6,3,0,0.00
2013-12-22,44.1,39.6,34.8,40.8,37.9,34.3,98,94,88,30.02,29.86,3,2,0,0.00
2013-12-23,36.9,34.0,32.8,36.6,33.7,32.6,99,99,98,30.10,29.99,3,1,0,0.55
2013-12-24,36.5,32.2,28.8,36.2,23.6,20.2,99,71,54,30.20,30.06,3,1,0,0.00
2013-12-25,26.6,20.7,15.5,14.6,7.7,3.3,67,57,44,30.55,30.22,7,2,0,0.00
2013-12-26,29.9,24.4,18.7,27.3,20.4,12.1,91,84,75,30.48,30.12,3,1,0,0.00
2013-12-27,34.6,29.2,22.9,22.9,21.3,19.6,87,73,59,30.29,30.22,8,3,0,0.05
2013-12-28,47.6,34.4,24.9,28.9,26.3,22.1,89,74,47,30.24,30.01,4,1,0,0.01
2013-12-29,42.9,38.5,32.0,38.2,33.3,28.9,91,82,67,30.00,29.81,1,0,0,0.09
2013-12-30,39.5,36.2,23.6,36.2,27.8,13.6,98,75,41,30.15,29.75,11,4,0,0.01
2013-12-31,26.7,22.3,14.6,14.1,10.8,1.4,75,62,48,30.18,30.04,9,2,0,0.00
2014-1-1,27.9,22.8,14.9,13.8,10.4,9.3,78,60,46,30.38,30.34,9,3,0,0.00
2014-1-2,19.7,16.2,3.0,17.3,13.8,0.0,91,90,87,30.35,29.90,10,3,0,0.00